Weather History for Holland Rock Automatic We, MB

Change the Weather History Date:

Saturday, January 18, 2014

  Actual Average Record
Temperature  
Mean Temperature 47 °F -  
Max Temperature 53 °F - - ()
Min Temperature 41 °F - - ()
Degree Days  
Heating Degree Days 18    
Moisture  
Dew Point 40 °F    
Average Humidity 80    
Maximum Humidity 94    
Minimum Humidity 39    
Precipitation  
Precipitation 0.00 in - - ()
Sea Level Pressure  
Sea Level Pressure 29.98 in    
Wind  
Wind Speed 15 mph ()    
Max Wind Speed 39 mph    
Max Gust Speed 46 mph    
T = Trace of Precipitation, MM = Missing Value Source: Averaged Metar Reports

Daily Weather History Graph

Daily Weather History Graph

Search for Another Location

Airport:

Trip Planner

Search our weather history database for the weather conditions in past years. The results will help you decide how hot, cold, wet, or windy it might be!

Date:

Astronomy

Jan. 18, 2014 Rise Set
Actual Time 8:49 AM PST 4:55 PM PST
Civil Twilight 8:08 AM PST 5:36 PM PST
Nautical Twilight 7:23 AM PST 6:20 PM PST
Astronomical Twilight 6:41 AM PST 7:03 PM PST
Moon 8:16 PM PST 9:22 AM PST
Length of Visible Light 9h 28m
Length of Day
8h 05m
Waning Gibbous, 94% of the Moon is Illuminated
Jan 18
Waning Gibbous
Jan 23
Last Quarter
Jan 30
New
Feb 6
First Quarter
Feb 14
Full

Hourly Weather History & Observations

Time (PST) Temp. Windchill Dew Point Humidity Pressure Visibility Wind Dir Wind Speed Gust Speed Precip Events Conditions
12:00 AM 50.4 °F - 30.7 °F 47% 29.83 in - ENE 10.4 mph - N/A   Unknown
1:00 AM 53.1 °F - 29.8 °F 41% 29.81 in - SE 18.4 mph - N/A   Unknown
2:00 AM 53.6 °F - 28.9 °F 39% 29.80 in - SE 21.9 mph 27.6 mph N/A   Unknown
3:00 AM 50.4 °F - 36.7 °F 59% 29.83 in - SSE 18.4 mph - N/A   Unknown
4:00 AM 49 °F - 37 °F 53% 29.83 in - SSE 31.1 mph - -  
4:00 AM 49.5 °F - 37.2 °F 63% 29.83 in - SSE 31.1 mph 38.0 mph N/A   Unknown
5:00 AM 46.4 °F 36.0 °F 40.8 °F 81% 29.83 in - SE 39.1 mph 46.0 mph N/A   Unknown
6:00 AM 45.5 °F 35.5 °F 42.4 °F 89% 29.83 in - SSE 33.4 mph 40.3 mph N/A   Unknown
7:00 AM 45.1 °F 36.6 °F 42.3 °F 90% 29.85 in - SE 23.0 mph 28.8 mph N/A   Unknown
8:00 AM 45.3 °F 37.3 °F 42.1 °F 88% 29.86 in - SE 20.7 mph - N/A   Unknown
9:00 AM 45.0 °F 35.8 °F 43.3 °F 94% 29.88 in - SE 26.5 mph - N/A   Unknown
10:00 AM 47 °F - 44 °F 86% 29.93 in - SSW 12.7 mph - -  
10:00 AM 47.5 °F - 44.2 °F 89% 29.93 in - SSW 12.7 mph - N/A   Unknown
11:00 AM 46.9 °F - 43.5 °F 88% 29.98 in - SSE 8.1 mph - N/A   Unknown
12:00 PM 47.7 °F - 43.2 °F 84% 30.01 in - SSE 8.1 mph - N/A   Unknown
1:00 PM 47.1 °F - 43.5 °F 87% 30.03 in - WSW 11.5 mph - N/A   Unknown
2:00 PM 46.0 °F 40.2 °F 43.2 °F 90% 30.06 in - WSW 12.7 mph - N/A   Unknown
3:00 PM 44.6 °F 38.4 °F 42.1 °F 91% 30.07 in - WNW 12.7 mph - N/A   Unknown
4:00 PM 45 °F - 41 °F 82% 30.10 in - North 5.8 mph - -  
4:00 PM 44.8 °F 41.6 °F 41.2 °F 87% 30.10 in - North 5.8 mph - N/A   Unknown
5:00 PM 45.1 °F 43.7 °F 40.5 °F 84% 30.12 in - NE 3.5 mph - N/A   Unknown
6:00 PM 44.2 °F 41.8 °F 40.8 °F 88% 30.12 in - East 4.6 mph - N/A   Unknown
7:00 PM 42.8 °F 39.3 °F 40.8 °F 93% 30.12 in - East 5.8 mph - N/A   Unknown
8:00 PM 42.4 °F 40.7 °F 38.3 °F 85% 30.12 in - ENE 3.5 mph - N/A   Unknown
9:00 PM 41.4 °F 38.4 °F 39.6 °F 93% 30.13 in - ENE 4.6 mph - N/A   Unknown
10:00 PM 41 °F - 40 °F 93% 30.14 in - ENE 3.5 mph - -  
10:00 PM 41.4 °F 39.4 °F 39.7 °F 94% 30.14 in - ENE 3.5 mph - N/A   Unknown
11:00 PM 41.5 °F 36.4 °F 39.6 °F 93% 30.15 in - East 8.1 mph - N/A   Unknown